TimePST,TemperatureF,Dew PointF,Humidity,Sea Level PressureIn,VisibilityMPH,Wind Direction,Wind SpeedMPH,Gust SpeedMPH,PrecipitationIn,Events,Conditions,WindDirDegrees,DateUTC
12:56 AM,39.9,16.0,38,29.99,10.0,Calm,Calm,-,N/A,,Clear,0,2012-11-25 08:56:00
1:56 AM,39.9,16.0,38,29.99,10.0,WSW,3.5,-,N/A,,Clear,250,2012-11-25 09:56:00
2:56 AM,36.0,15.1,43,29.99,10.0,SW,4.6,-,N/A,,Clear,230,2012-11-25 10:56:00
3:56 AM,37.0,16.0,42,29.98,10.0,Calm,Calm,-,N/A,,Clear,0,2012-11-25 11:56:00
4:56 AM,35.1,15.1,44,29.98,10.0,Calm,Calm,-,N/A,,Clear,0,2012-11-25 12:56:00
5:56 AM,35.1,15.1,44,30.00,10.0,Calm,Calm,-,N/A,,Clear,0,2012-11-25 13:56:00
6:56 AM,34.0,15.1,46,30.01,10.0,Calm,Calm,-,N/A,,Clear,0,2012-11-25 14:56:00
7:56 AM,39.9,15.1,36,30.01,10.0,Calm,Calm,-,N/A,,Clear,0,2012-11-25 15:56:00
8:56 AM,48.0,17.1,29,30.02,10.0,Calm,Calm,-,N/A,,Clear,0,2012-11-25 16:56:00
9:56 AM,55.0,18.0,23,30.01,10.0,WNW,3.5,-,N/A,,Clear,290,2012-11-25 17:56:00
10:56 AM,59.0,19.0,21,29.99,10.0,Calm,Calm,-,N/A,,Clear,0,2012-11-25 18:56:00
11:56 AM,64.9,19.9,18,29.95,10.0,SE,4.6,-,N/A,,Clear,130,2012-11-25 19:56:00
12:56 PM,68.0,19.9,16,29.92,10.0,Calm,Calm,-,N/A,,Clear,0,2012-11-25 20:56:00
1:56 PM,70.0,21.0,16,29.89,10.0,Calm,Calm,-,N/A,,Clear,0,2012-11-25 21:56:00
2:56 PM,71.1,19.9,14,29.88,10.0,Calm,Calm,-,N/A,,Clear,0,2012-11-25 22:56:00
3:56 PM,69.1,19.9,15,29.87,10.0,ENE,3.5,-,N/A,,Clear,70,2012-11-25 23:56:00
4:56 PM,64.0,19.0,18,29.88,10.0,Calm,Calm,-,N/A,,Clear,0,2012-11-26 00:56:00
5:56 PM,55.0,17.1,23,29.91,10.0,West,5.8,-,N/A,,Clear,260,2012-11-26 01:56:00
6:56 PM,48.0,15.1,27,29.94,10.0,South,8.1,-,N/A,,Clear,190,2012-11-26 02:56:00
7:56 PM,46.9,15.1,28,29.96,10.0,SSW,8.1,-,N/A,,Clear,200,2012-11-26 03:56:00
8:56 PM,45.0,15.1,30,29.97,10.0,SSW,8.1,-,N/A,,Clear,200,2012-11-26 04:56:00
9:56 PM,46.0,15.1,29,29.97,10.0,SW,6.9,-,N/A,,Clear,230,2012-11-26 05:56:00
10:56 PM,44.1,16.0,32,29.98,10.0,SSW,8.1,-,N/A,,Clear,200,2012-11-26 06:56:00
11:56 PM,39.9,14.0,35,29.99,10.0,Calm,Calm,-,N/A,,Clear,0,2012-11-26 07:56:00